sat.trackr.live / text

‹ back to catalog

QIANFAN-143

NORAD 69089 · 2026-104S

PAYLOAD ACTIVE UNKNOWN

§ Identity

Operator
Country
PRC
Launch date
2026-05-12
Launch site
TAISC
Launch vehicle
Mass (kg)
RCS (m²)

External: N2YO · Heavens-Above · Gunter

§ Orbital elements

Epoch: 2026-05-24T19:45:39.077280Z

Period
101.03 min
Inclination
88.9868°
Eccentricity
0.0003542
Mean motion
14.25359790 rev/d
Perigee alt
804.7 km
Apogee alt
809.8 km
Semi-major
7,185.4 km
B*
2.7306e-5
RAAN
344.2850°
Arg perigee
163.5392°
Mean anomaly
196.5916°
Rev number
177

§ Raw data

QIANFAN-1431 69089U 26104S   26144.82336895  .00000079  00000+0  27306-4 0  99932 69089  88.9868 344.2850 0003542 163.5392 196.5916 14.25359790  1777

JSON: /api/v1/satellites/69089 · /tle

For live sub-satellite position, see the globe view (requires WebGL).

§ Visibility from observer

Set your observer location to see the next 7 days of passes ≥ 10°. The values pass through the URL so the page stays shareable.

No JS? Fill the form by hand. The geolocation button needs JavaScript.